Wind_Speed
26 24 23 22 22 22 23 22 21 21 22 22 20 22 25 24 23 23 21 21 21 21 21 21 20 20 20 20 20 20 20 20 20 19 19 19 20 21 21 21 22 22 23 23
28 26 25 24 22 22 24 23 24 24 24 23 22 23 25 25 26 25 24 23 23 23 22 22 22 22 22 22 22 22 22 21 21 21 20 21 21 22 22 22 23 24 25 25
28 26 26 26 25 24 24 24 24 26 26 26 26 26 25 26 27 26 26 25 24 24 24 24 23 24 23 23 23 23 23 23 22 22 22 22 22 23 23 24 25 25 26 26
29 27 28 27 25 25 25 26 26 25 26 25 26 27 28 26 27 27 26 25 24 24 24 24 24 24 23 24 23 23 23 23 23 23 23 23 24 25 25 25 26 27 27 27
29 28 28 27 25 25 25 27 26 27 27 26 27 28 28 28 28 27 26 25 24 25 25 24 24 24 24 24 25 25 25 25 25 25 25 25 25 26 26 27 28 28 29 29
29 29 29 28 27 26 24 27 27 28 28 28 29 30 30 29 29 28 27 26 25 25 26 25 25 25 24 24 24 25 25 26 26 26 26 26 27 27 28 28 28 28 29 29
29 30 28 27 28 27 27 27 27 28 28 28 29 29 29 29 29 28 27 27 27 26 26 26 26 25 25 25 25 26 27 27 27 27 27 27 28 28 28 29 29 29 29 29
29 29 29 28 27 28 27 27 28 28 28 28 28 28 28 28 29 29 28 28 27 27 26 27 27 27 27 27 28 28 28 28 28 28 29 29 28 29 29 30 30 30 30 30
31 31 30 29 30 31 30 30 29 29 29 28 28 29 29 29 30 30 29 29 29 28 27 28 29 29 29 29 29 29 29 29 30 30 30 30 30 31 31 31 31 31 31 31
33 32 32 31 31 31 32 31 31 31 31 30 30 31 30 30 30 30 30 30 30 30 30 30 30 30 30 30 30 30 30 31 31 32 31 31 31 32 32 33 32 33 33 32
33 33 34 33 33 33 33 31 31 31 31 31 31 31 31 30 29 30 30 30 30 30 30 31 31 31 31 31 31 31 31 32 32 32 33 32 33 33 33 33 33 33 33 32
32 32 34 34 34 33 32 32 31 31 31 32 31 32 32 32 31 30 31 31 31 30 30 31 31 31 31 31 31 31 31 31 31 32 33 33 33 34 34 33 33 32 31 31
34 35 35 35 34 33 32 33 33 33 33 33 32 32 33 32 31 31 31 31 31 30 30 31 31 31 31 31 31 31 31 32 32 33 33 32 32 32 32 32 31 31 31 31
35 37 37 36 37 36 35 35 34 34 34 33 32 33 33 32 32 32 32 32 32 31 31 31 31 31 31 30 30 31 32 32 32 32 32 31 31 31 31 31 31 31 31 30
37 37 37 37 36 35 36 36 36 35 35 34 33 33 33 33 33 33 33 33 32 32 31 31 31 31 31 30 30 30 31 31 31 31 30 29 30 30 31 31 31 31 31 30
37 38 37 37 36 35 36 36 36 35 35 35 34 34 33 33 33 32 33 33 32 32 32 32 32 31 30 31 31 31 31 31 30 29 29 29 30 30 31 31 31 31 30 30
36 37 37 36 36 36 35 35 35 35 34 34 33 34 34 34 33 32 32 32 32 32 32 32 32 32 31 31 31 31 31 31 30 29 29 29 30 30 30 30 30 30 30 30
33 34 35 35 34 35 35 35 34 33 33 33 33 33 32 32 32 32 32 33 33 33 33 33 32 32 31 32 30 30 30 30 29 28 29 29 29 29 30 30 30 30 29 29
31 32 33 34 34 34 34 33 33 32 32 32 33 32 32 32 32 32 32 32 32 32 32 32 32 32 32 31 30 29 29 29 29 28 28 28 28 28 29 29 29 29 29 28
29 30 30 30 31 31 31 30 31 32 32 32 32 32 32 32 32 32 32 31 31 30 30 30 30 30 30 30 29 28 28 28 28 27 27 27 27 28 28 28 28 28 28 28
26 27 27 28 28 28 29 29 30 30 31 31 31 31 30 30 30 30 30 30 30 29 28 28 29 28 28 28 28 28 28 27 27 27 27 28 28 28 28 28 28 28 28 28
23 24 25 26 26 27 27 28 28 29 29 29 29 28 28 28 28 28 28 28 28 28 27 27 27 27 28 27 27 26 27 27 27 27 27 27 27 27 27 27 27 26 26 26
22 23 23 24 24 25 25 26 26 27 27 27 26 25 25 26 26 26 26 26 26 26 27 26 26 26 27 27 27 27 27 26 26 27 27 27 28 28 28 28 27 26 26 26
22 22 22 23 23 23 24 24 25 25 25 24 24 24 24 24 25 24 25 25 25 26 26 26 26 26 26 26 27 27 26 27 27 27 28 28 28 28 29 28 27 26 26 26
20 20 21 21 21 21 21 22 22 22 22 23 23 23 24 24 24 23 24 25 25 25 25 25 25 26 26 26 26 27 27 27 27 26 26 27 27 27 27 26 26 26 26 26
18 19 19 19 19 20 20 20 20 20 21 21 22 22 22 22 22 23 23 24 24 24 24 24 24 24 25 25 25 25 25 25 25 24 25 25 25 25 25 25 26 26 26 26
18 18 18 18 19 19 19 20 20 20 20 20 20 21 21 21 21 21 21 22 22 23 23 23 23 23 23 23 23 24 24 25 24 24 25 24 24 24 25 25 25 25 25 25
Wind_Direction
235 237 241 246 244 245 248 249 253 259 261 265 266 268 272 275 281 283 283 283 283 284 284 285 284 284 283 283 285 285 286 288 290 290 293 293 295 295 296 295 295 295 297 296
237 238 241 241 243 246 247 249 251 254 259 263 264 264 269 275 280 282 283 283 282 282 283 283 283 284 280 280 280 281 285 287 287 287 290 292 295 296 297 295 295 295 297 298
239 241 245 245 243 244 248 252 251 252 257 261 267 268 271 274 276 277 280 282 280 279 281 282 283 285 280 280 281 283 284 283 285 287 290 292 295 296 297 296 296 296 297 298
238 240 243 247 246 247 251 254 254 255 259 262 266 269 271 274 276 276 279 281 280 280 280 281 282 283 282 282 281 281 282 282 283 286 289 291 294 296 297 298 297 295 296 296
238 241 245 245 244 243 249 255 255 255 256 260 263 265 270 273 276 277 278 279 281 280 280 281 282 283 283 283 281 279 280 281 283 285 287 290 293 295 296 296 297 297 296 295
239 241 244 246 246 245 247 253 254 256 257 258 262 264 268 270 273 275 278 277 279 281 281 280 279 280 281 282 283 281 282 282 283 283 285 289 291 292 294 296 297 297 298 298
241 244 246 250 251 250 248 251 255 257 257 262 263 262 266 269 273 276 278 278 279 280 279 278 277 278 281 281 281 281 282 282 282 284 285 288 290 291 294 295 296 297 298 298
238 242 246 249 254 253 252 254 256 259 260 262 265 265 268 271 274 276 278 278 278 279 278 277 276 278 280 281 281 281 281 280 281 282 284 286 290 293 294 296 296 296 296 297
239 241 245 247 252 254 255 256 256 259 260 262 264 266 269 273 275 276 277 277 277 277 276 275 275 277 279 280 281 280 280 279 280 282 284 285 288 291 292 294 295 296 296 296
238 242 243 247 250 254 256 256 256 258 260 261 264 267 271 273 275 275 276 277 276 276 275 275 276 277 277 277 278 279 280 280 282 283 284 284 286 289 291 293 295 296 296 296
239 242 245 248 251 254 255 255 256 258 260 262 264 267 270 272 274 276 276 276 276 276 275 275 276 275 275 276 277 278 280 281 282 283 285 285 285 287 290 292 294 295 295 295
240 243 244 247 248 249 252 255 257 258 261 261 263 267 269 271 273 275 277 276 276 276 274 273 275 276 276 279 280 280 282 284 284 284 284 284 285 288 290 291 294 294 295 294
240 242 244 247 252 253 254 256 259 260 262 263 266 267 269 271 273 274 275 275 274 274 273 273 274 276 278 280 281 282 283 284 285 286 287 287 288 289 289 291 292 293 294 294
242 245 247 249 252 255 256 257 259 261 263 266 266 268 269 270 272 273 273 272 273 273 273 274 274 275 277 279 280 282 283 284 285 286 287 287 288 289 289 290 292 293 293 293
245 247 248 250 253 255 256 258 259 261 264 266 267 268 269 270 271 273 273 272 271 272 272 273 273 273 276 278 279 281 282 284 286 286 285 285 287 289 290 292 292 293 293 293
246 249 250 252 254 255 257 259 260 262 264 266 267 267 269 270 271 272 271 270 271 271 272 272 271 272 274 276 278 278 280 284 285 285 284 285 287 289 290 292 292 292 292 292
247 249 251 253 255 257 258 260 261 262 264 266 267 268 269 269 270 270 269 269 271 272 273 273 272 274 274 275 277 277 280 282 283 284 286 288 289 290 291 292 292 292 292 292
249 250 252 254 256 257 259 260 262 263 263 265 267 269 269 270 270 270 269 269 271 272 273 273 273 274 273 273 274 277 279 280 282 284 286 288 290 291 291 292 292 292 292 292
250 250 251 252 254 256 258 260 261 263 264 265 266 268 269 269 270 270 270 270 270 271 271 270 270 271 273 273 275 275 277 279 282 283 285 288 289 289 290 291 292 292 292 293
249 250 252 253 253 255 258 259 261 263 264 265 266 267 268 269 270 270 270 270 270 271 270 270 271 272 271 271 274 275 277 279 281 282 285 287 288 289 290 291 292 292 292 293
246 248 250 251 252 254 257 260 263 264 264 265 266 265 267 268 269 269 269 270 272 274 272 271 271 271 270 271 273 274 275 277 279 282 285 286 288 288 290 292 292 292 292 293
248 249 251 253 254 256 258 261 264 264 265 266 266 267 268 268 269 270 270 271 273 273 273 271 269 270 269 270 271 272 274 277 279 281 284 285 287 289 291 293 293 293 293 293
252 253 254 255 257 258 260 262 264 266 267 267 266 266 268 268 269 270 270 271 272 273 274 272 269 268 268 269 271 272 275 277 280 283 284 285 287 288 289 291 292 292 292 293
254 255 255 257 258 260 261 264 266 267 268 267 267 268 269 268 269 270 270 270 271 272 272 271 269 268 269 269 270 272 275 279 281 283 284 285 285 286 287 289 289 290 291 292
253 254 255 257 259 259 261 264 266 267 269 269 269 269 270 270 270 270 271 271 272 272 272 272 271 269 268 268 270 272 275 278 280 282 282 283 285 286 288 289 290 290 291 292
251 254 257 259 260 262 263 265 267 270 270 269 270 271 273 272 271 270 271 272 271 271 272 271 270 269 270 271 272 274 276 279 280 282 283 285 287 288 289 290 292 292 293 294
254 256 259 260 261 263 265 267 268 269 270 270 271 272 273 274 274 275 274 274 274 273 272 269 269 270 271 273 274 275 276 278 280 282 284 285 287 289 290 291 292 292 294 294
Height
5865 5869 5871 5873 5875 5876 5878 5879 5880 5880 5879 5879 5878 5877 5876 5876 5876 5876 5876 5876 5876 5875 5874 5874 5874 5873 5873 5872 5872 5871 5871 5870 5869 5869 5868 5867 5867 5866 5864 5863 5862 5861 5860 5858
5859 5862 5864 5866 5868 5870 5872 5874 5875 5875 5874 5874 5871 5871 5871 5871 5871 5871 5871 5871 5871 5870 5870 5869 5869 5868 5868 5868 5867 5867 5866 5866 5865 5864 5863 5863 5862 5860 5859 5858 5857 5855 5854 5852
5852 5856 5857 5859 5861 5864 5865 5867 5868 5868 5868 5867 5867 5866 5866 5866 5866 5866 5866 5866 5866 5865 5865 5864 5863 5863 5863 5862 5862 5862 5861 5860 5860 5859 5858 5857 5856 5855 5854 5852 5851 5849 5848 5846
5845 5849 5850 5855 5856 5857 5858 5859 5861 5862 5861 5860 5861 5861 5860 5861 5860 5860 5860 5860 5860 5860 5859 5859 5858 5858 5857 5857 5856 5856 5856 5855 5854 5853 5853 5852 5851 5850 5848 5847 5845 5843 5842 5840
5838 5840 5842 5846 5848 5849 5852 5852 5853 5854 5854 5854 5853 5854 5854 5854 5854 5854 5854 5854 5854 5854 5853 5853 5852 5852 5851 5851 5850 5850 5850 5849 5848 5848 5847 5846 5845 5844 5842 5840 5839 5837 5835 5833
5831 5833 5835 5840 5841 5841 5845 5845 5845 5846 5847 5847 5847 5848 5848 5848 5848 5847 5846 5846 5846 5847 5847 5846 5845 5845 5845 5844 5844 5844 5843 5843 5842 5841 5840 5839 5838 5837 5835 5834 5832 5830 5828 5826
5824 5826 5828 5832 5832 5835 5838 5838 5838 5839 5840 5839 5838 5840 5840 5840 5840 5840 5840 5840 5840 5840 5840 5839 5838 5838 5838 5838 5838 5837 5836 5835 5834 5834 5833 5832 5831 5830 5828 5827 5825 5823 5821 5819
5816 5819 5823 5823 5825 5827 5828 5829 5831 5832 5833 5832 5832 5832 5833 5832 5833 5833 5833 5833 5833 5833 5832 5832 5831 5831 5832 5831 5830 5830 5829 5828 5827 5826 5825 5825 5824 5823 5821 5819 5817 5815 5813 5811
5809 5813 5814 5816 5817 5818 5820 5822 5823 5824 5825 5825 5825 5825 5825 5826 5826 5826 5825 5825 5825 5825 5825 5824 5824 5824 5824 5823 5822 5822 5821 5820 5819 5819 5818 5817 5816 5815 5813 5811 5809 5807 5805 5803
5800 5803 5805 5807 5809 5810 5812 5813 5815 5816 5817 5818 5818 5818 5818 5818 5818 5818 5818 5817 5817 5816 5816 5816 5816 5816 5815 5815 5814 5814 5813 5812 5811 5810 5810 5809 5808 5806 5804 5803 5801 5798 5796 5794
5791 5795 5797 5799 5801 5802 5804 5806 5807 5809 5810 5810 5810 5810 5810 5810 5810 5810 5809 5809 5808 5808 5808 5807 5807 5807 5807 5806 5806 5805 5804 5803 5802 5802 5801 5800 5798 5797 5795 5794 5792 5789 5787 5785
5782 5786 5789 5790 5792 5794 5797 5798 5799 5801 5801 5802 5802 5802 5802 5802 5802 5802 5801 5801 5800 5799 5799 5799 5799 5798 5798 5797 5797 5796 5795 5794 5793 5792 5791 5790 5789 5787 5786 5784 5783 5780 5778 5776
5774 5776 5779 5781 5783 5786 5788 5790 5791 5792 5793 5794 5794 5794 5794 5794 5794 5793 5793 5792 5792 5791 5791 5790 5790 5790 5789 5789 5788 5787 5787 5786 5784 5783 5781 5780 5779 5778 5777 5776 5773 5771 5770 5768
5765 5768 5771 5773 5775 5778 5780 5782 5783 5784 5784 5785 5785 5785 5785 5785 5785 5785 5785 5784 5783 5782 5782 5782 5781 5781 5780 5780 5779 5778 5777 5776 5775 5774 5772 5771 5770 5768 5767 5766 5765 5763 5761 5759
5758 5760 5762 5764 5767 5769 5771 5772 5774 5775 5776 5776 5776 5776 5776 5776 5776 5776 5776 5775 5774 5774 5774 5773 5773 5772 5772 5771 5770 5769 5768 5767 5766 5765 5763 5762 5761 5760 5758 5757 5755 5754 5752 5750
5749 5751 5754 5756 5758 5760 5761 5763 5764 5765 5766 5767 5766 5767 5767 5767 5767 5767 5766 5766 5765 5765 5765 5765 5764 5764 5763 5762 5761 5760 5760 5759 5757 5756 5755 5754 5753 5751 5750 5748 5746 5744 5742 5741
5740 5742 5744 5746 5748 5750 5752 5753 5754 5755 5757 5757 5757 5758 5758 5757 5758 5757 5757 5757 5757 5756 5756 5756 5755 5755 5754 5754 5752 5751 5751 5750 5749 5748 5747 5746 5744 5743 5741 5739 5738 5735 5733 5732
5730 5733 5735 5737 5739 5740 5742 5744 5745 5746 5747 5748 5748 5748 5748 5748 5748 5748 5748 5747 5747 5747 5747 5746 5746 5746 5745 5745 5744 5743 5742 5741 5741 5740 5739 5738 5736 5734 5733 5731 5729 5727 5725 5723
5722 5724 5726 5728 5729 5731 5732 5734 5735 5736 5737 5738 5738 5738 5738 5738 5738 5738 5738 5737 5737 5737 5738 5737 5737 5736 5736 5735 5735 5734 5734 5733 5732 5732 5731 5730 5728 5727 5725 5723 5721 5719 5717 5715
5715 5716 5718 5720 5721 5722 5723 5724 5725 5726 5727 5728 5728 5728 5728 5728 5728 5728 5728 5728 5727 5728 5728 5728 5728 5726 5725 5726 5726 5726 5725 5725 5724 5723 5723 5722 5720 5719 5717 5715 5713 5711 5709 5707
5708 5709 5711 5712 5714 5715 5715 5716 5717 5717 5718 5718 5718 5718 5719 5718 5718 5718 5718 5718 5719 5718 5718 5718 5719 5718 5718 5718 5718 5718 5717 5717 5716 5716 5715 5714 5712 5711 5709 5707 5705 5703 5701 5699
5702 5703 5704 5705 5707 5708 5708 5709 5709 5709 5709 5709 5709 5709 5709 5709 5709 5709 5709 5710 5710 5710 5710 5710 5710 5710 5710 5710 5710 5710 5709 5709 5709 5708 5707 5706 5704 5703 5701 5699 5697 5695 5693 5691
5696 5697 5698 5699 5700 5700 5701 5701 5702 5702 5702 5701 5701 5701 5701 5701 5701 5701 5701 5702 5702 5701 5701 5701 5702 5702 5702 5702 5702 5702 5702 5701 5701 5700 5698 5697 5696 5695 5693 5691 5689 5687 5685 5683
5690 5691 5692 5692 5693 5694 5694 5694 5694 5694 5694 5694 5694 5694 5694 5694 5694 5694 5693 5693 5693 5693 5693 5693 5694 5694 5694 5694 5694 5694 5694 5693 5692 5691 5690 5689 5688 5686 5685 5683 5681 5679 5677 5675
5684 5685 5686 5686 5687 5687 5687 5688 5688 5688 5688 5688 5688 5687 5687 5687 5687 5687 5686 5686 5685 5685 5685 5686 5686 5686 5686 5686 5686 5685 5685 5685 5684 5683 5681 5681 5679 5678 5677 5675 5673 5671 5669 5667
5678 5679 5680 5681 5681 5681 5681 5682 5682 5682 5681 5681 5681 5681 5681 5680 5680 5679 5679 5679 5678 5678 5678 5678 5678 5678 5678 5678 5678 5678 5677 5677 5676 5675 5674 5673 5672 5670 5669 5667 5666 5664 5661 5659
5673 5674 5675 5675 5675 5675 5675 5676 5676 5675 5675 5675 5675 5675 5674 5674 5673 5673 5672 5672 5671 5671 5671 5671 5671 5670 5670 5670 5670 5670 5669 5669 5668 5667 5666 5665 5664 5663 5661 5660 5658 5656 5653 5651